Petersburg, WV

3:40 AM EST on January 19, 2017 (GMT -0500)
Petersburg

Weather History for KW99 - January, 2013

Change the Weather History Date:

Thursday, January 24, 2013

  Actual Average (KEKN) Record (KEKN)
Temperature  
Mean Temperature 19 °F -  
Max Temperature 27 °F 40 °F 70 °F (1950)
Min Temperature 11 °F 19 °F -16 °F (1963)
Degree Days  
Heating Degree Days 46    
Moisture  
Dew Point 9 °F    
Average Humidity 63    
Maximum Humidity 88    
Minimum Humidity 35    
Precipitation  
Precipitation 0.00 in - - ()
Sea Level Pressure  
Sea Level Pressure 30.32 in    
Wind  
Wind Speed 4 mph (NW)    
Max Wind Speed 21 mph    
Max Gust Speed 26 mph    
Visibility 8 miles    
Events Snow    
Averages and records for this station are not official NWS values.
T = Trace of Precipitation, MM = Missing Value Source: NWS Daily Summary

Daily Weather History Graph

Daily Weather History Graph

Search for Another Location

Airport or City:

Trip Planner

Search our weather history database for the weather conditions in past years. The results will help you decide how hot, cold, wet, or windy it might be!

Date:

Astronomy

Jan. 24, 2013 Rise Set
Actual Time 7:29 AM EST 5:28 PM EST
Civil Twilight 7:00 AM EST 5:57 PM EST
Nautical Twilight 6:28 AM EST 6:29 PM EST
Astronomical Twilight 5:56 AM EST 7:01 PM EST
Moon 3:29 PM EST (1/24) 5:25 AM EST (1/24)
Length of Visible Light 10h 57m
Length of Day
9h 59m
Waxing Gibbous, 94% of the Moon is Illuminated
Jan 24
Waxing Gibbous
Jan 26
Full
Feb 3
Last Quarter
Feb 10
New
Feb 17
First Quarter

Hourly Weather History & Observations

Time (EST) Temp. Windchill Dew Point Humidity Pressure Visibility Wind Dir Wind Speed Gust Speed Precip Events Conditions
12:15 AM 22.5 °F - 19.0 °F 87% 30.05 in 2.5 mi Calm Calm - N/A Snow Light Snow
12:35 AM 22.1 °F - 18.9 °F 87% 30.04 in 1.5 mi Calm Calm - N/A Snow Light Snow
12:55 AM 22.1 °F - 19.0 °F 88% 30.03 in 2.0 mi Calm Calm - N/A Snow Light Snow
1:15 AM 22.1 °F - 19.0 °F 88% 30.03 in 2.5 mi Calm Calm - N/A Snow Light Snow
1:35 AM 22.1 °F - 18.9 °F 87% 30.03 in 1.8 mi Calm Calm - N/A Snow Light Snow
1:55 AM 22.1 °F - 18.9 °F 87% 30.03 in 2.0 mi Calm Calm - N/A Snow Light Snow
2:15 AM 21.9 °F - 18.5 °F 87% 30.03 in 2.5 mi Calm Calm - N/A Snow Light Snow
2:35 AM 21.9 °F - 18.5 °F 87% 30.03 in 4.0 mi Calm Calm - N/A Snow Light Snow
2:55 AM 21.6 °F - 18.1 °F 87% 30.04 in 4.0 mi Calm Calm - N/A Snow Light Snow
3:15 AM 21.0 °F - 18.0 °F 88% 30.05 in 3.0 mi Calm Calm - N/A Snow Light Snow
3:35 AM 20.3 °F - 17.2 °F 88% 30.04 in 4.0 mi Calm Calm - N/A Snow Light Snow
3:55 AM 19.9 °F - 16.9 °F 88% 30.04 in 4.0 mi Calm Calm - N/A Snow Light Snow
4:15 AM 19.6 °F 13.0 °F 16.5 °F 88% 30.06 in 7.0 mi NW 4.6 mph - N/A Snow Light Snow
4:35 AM 19.6 °F 13.0 °F 16.3 °F 87% 30.06 in 7.0 mi North 4.6 mph - N/A Snow Light Snow
4:55 AM 19.2 °F - 15.6 °F 86% 30.08 in 10.0 mi Calm Calm - N/A   Overcast
5:15 AM 19.4 °F - 15.4 °F 85% 30.09 in 5.0 mi Calm Calm - N/A Snow Light Snow
5:35 AM 19.4 °F 11.5 °F 15.3 °F 84% 30.11 in 2.5 mi NNE 5.8 mph - N/A Snow Light Snow
5:55 AM 19.8 °F - 15.4 °F 83% 30.12 in 3.0 mi Calm Calm - N/A Snow Light Snow
6:15 AM 20.3 °F 12.5 °F 15.6 °F 82% 30.15 in 3.0 mi NNE 5.8 mph - N/A Snow Light Snow
6:35 AM 20.3 °F 13.8 °F 15.3 °F 81% 30.17 in 10.0 mi NNE 4.6 mph - N/A   Overcast
6:55 AM 19.9 °F 12.1 °F 13.6 °F 77% 30.18 in 10.0 mi West 5.8 mph - N/A   Overcast
7:15 AM 20.1 °F 12.3 °F 10.9 °F 68% 30.19 in 10.0 mi NW 5.8 mph - N/A   Overcast
7:35 AM 20.7 °F 11.0 °F 12.7 °F 71% 30.23 in 2.0 mi North 8.1 mph - N/A Snow Light Snow
7:55 AM 19.9 °F 14.9 °F 14.0 °F 78% 30.25 in 10.0 mi NNW 3.5 mph - N/A   Overcast
8:15 AM 19.8 °F - 11.1 °F 69% 30.26 in 10.0 mi Calm Calm - N/A   Overcast
8:35 AM 19.9 °F 14.9 °F 9.5 °F 64% 30.28 in 10.0 mi North 3.5 mph - N/A   Mostly Cloudy
8:55 AM 21.0 °F - 10.0 °F 63% 30.29 in 10.0 mi Calm Calm - N/A   Scattered Clouds
9:15 AM 22.1 °F 12.8 °F 7.9 °F 54% 30.31 in 10.0 mi NNW 8.1 mph - N/A   Clear
9:35 AM 22.3 °F 12.2 °F 6.6 °F 51% 30.32 in 10.0 mi NW 9.2 mph - N/A   Clear
9:55 AM 21.7 °F 10.2 °F 6.1 °F 51% 30.34 in 10.0 mi NW 11.5 mph 16.1 mph N/A   Scattered Clouds
10:15 AM 22.6 °F 10.1 °F 6.4 °F 50% 30.34 in 10.0 mi NW 13.8 mph 20.7 mph N/A   Scattered Clouds
10:35 AM 22.8 °F 10.9 °F 5.4 °F 47% 30.36 in 10.0 mi NW 12.7 mph 17.3 mph N/A   Scattered Clouds
10:55 AM 22.8 °F 9.9 °F 5.7 °F 48% 30.37 in 10.0 mi NW 15.0 mph 23.0 mph N/A   Scattered Clouds
11:15 AM 22.3 °F 13.9 °F 4.6 °F 47% 30.39 in 10.0 mi NNW 6.9 mph - N/A   Mostly Cloudy
11:35 AM 22.8 °F 11.5 °F 4.5 °F 45% 30.39 in 10.0 mi NNW 11.5 mph 20.7 mph N/A   Overcast
11:55 AM 23.5 °F 11.8 °F 4.5 °F 44% 30.39 in 10.0 mi NNW 12.7 mph 19.6 mph N/A   Mostly Cloudy
12:15 PM 24.1 °F 9.8 °F 4.5 °F 43% 30.39 in 10.0 mi NW 19.6 mph 24.2 mph N/A   Mostly Cloudy
12:35 PM 23.9 °F 12.3 °F 3.2 °F 41% 30.40 in 10.0 mi NNW 12.7 mph 21.9 mph N/A   Scattered Clouds
12:55 PM 24.6 °F 13.2 °F 3.6 °F 40% 30.40 in 10.0 mi NW 12.7 mph 20.7 mph N/A   Scattered Clouds
1:15 PM 26.4 °F 14.0 °F 3.4 °F 37% 30.41 in 10.0 mi NNW 16.1 mph 21.9 mph N/A   Scattered Clouds
1:35 PM 25.7 °F 13.1 °F 4.1 °F 40% 30.40 in 10.0 mi NW 16.1 mph 21.9 mph N/A   Scattered Clouds
1:55 PM 26.8 °F 12.9 °F 6.1 °F 41% 30.39 in 10.0 mi WNW 20.7 mph 26.5 mph N/A   Scattered Clouds
2:15 PM 25.9 °F 14.3 °F 2.8 °F 37% 30.41 in 10.0 mi WNW 13.8 mph 25.3 mph N/A   Mostly Cloudy
2:35 PM 25.0 °F 12.6 °F 2.7 °F 38% 30.41 in 10.0 mi WNW 15.0 mph 21.9 mph N/A   Mostly Cloudy
2:55 PM 26.2 °F 15.8 °F 1.9 °F 35% 30.42 in 10.0 mi NW 11.5 mph 23.0 mph N/A   Scattered Clouds
3:15 PM 25.9 °F 17.4 °F 3.6 °F 38% 30.43 in 10.0 mi NW 8.1 mph - N/A   Clear
3:35 PM 26.8 °F 15.4 °F 2.1 °F 35% 30.44 in 10.0 mi NNW 13.8 mph 20.7 mph N/A   Scattered Clouds
3:55 PM 26.6 °F 14.3 °F 2.1 °F 35% 30.44 in 10.0 mi NW 16.1 mph - N/A   Scattered Clouds
4:15 PM 25.7 °F 15.7 °F 1.6 °F 35% 30.44 in 10.0 mi NW 10.4 mph - N/A   Clear
4:35 PM 25.2 °F 15.1 °F 0.7 °F 35% 30.45 in 10.0 mi NW 10.4 mph 19.6 mph N/A   Clear
4:55 PM 24.3 °F 13.3 °F 0.7 °F 36% 30.46 in 10.0 mi NW 11.5 mph 18.4 mph N/A   Clear
5:15 PM 23.9 °F 12.9 °F 1.6 °F 38% 30.46 in 10.0 mi NW 11.5 mph 17.3 mph N/A   Scattered Clouds
5:35 PM 23.5 °F 12.4 °F 1.6 °F 39% 30.47 in 10.0 mi NW 11.5 mph 17.3 mph N/A   Clear
5:55 PM 22.6 °F 12.6 °F 1.6 °F 40% 30.48 in 10.0 mi NNW 9.2 mph - N/A   Clear
6:15 PM 22.3 °F 12.2 °F 1.6 °F 41% 30.48 in 10.0 mi NW 9.2 mph - N/A   Clear
6:35 PM 22.1 °F 14.7 °F 2.1 °F 42% 30.50 in 10.0 mi NNW 5.8 mph - N/A   Clear
6:55 PM 20.7 °F 15.8 °F 2.8 °F 46% 30.50 in 10.0 mi NNW 3.5 mph - N/A   Clear
7:15 PM 16.2 °F - 4.5 °F 60% 30.51 in 10.0 mi Calm Calm - N/A   Clear
7:35 PM 16.9 °F - 4.5 °F 58% 30.52 in 10.0 mi Calm Calm - N/A   Clear
7:55 PM 16.5 °F - 4.3 °F 59% 30.52 in 10.0 mi Calm Calm - N/A   Clear
8:15 PM 16.3 °F - 5.2 °F 62% 30.51 in 10.0 mi Calm Calm - N/A   Clear
8:35 PM 16.3 °F 10.8 °F 6.1 °F 64% 30.51 in 10.0 mi West 3.5 mph - N/A   Clear
8:55 PM 14.2 °F - 5.9 °F 70% 30.51 in 10.0 mi Calm Calm - N/A   Clear
9:15 PM 15.4 °F - 7.5 °F 71% 30.51 in 10.0 mi Calm Calm - N/A   Clear
9:35 PM 14.7 °F - 6.4 °F 70% 30.51 in 10.0 mi Calm Calm - N/A   Clear
9:55 PM 14.5 °F 5.7 °F 6.6 °F 71% 30.51 in 10.0 mi NNW 5.8 mph - N/A   Clear
10:15 PM 14.2 °F - 7.3 °F 74% 30.51 in 10.0 mi Calm Calm - N/A   Clear
10:35 PM 12.7 °F - 6.1 °F 75% 30.51 in 10.0 mi Calm Calm - N/A   Clear
10:55 PM 13.1 °F - 6.6 °F 75% 30.51 in 10.0 mi Calm Calm - N/A   Clear
11:15 PM 12.4 °F - 6.3 °F 76% 30.52 in 10.0 mi Calm Calm - N/A   Clear
11:35 PM 12.6 °F - 7.2 °F 79% 30.51 in 10.0 mi Calm Calm - N/A   Clear
11:55 PM 11.3 °F - 6.1 °F 80% 30.50 in 10.0 mi Calm Calm - N/A   Clear